Weather History for KHEI - April, 2013

Change the Weather History Date:

Wednesday, April 3, 2013

  Actual Average Record
Temperature  
Mean Temperature 47 °F -  
Max Temperature 71 °F 50 °F 71 °F (2013)
Min Temperature 23 °F 24 °F 1 °F (2002)
Degree Days  
Heating Degree Days 18 28  
Month to date heating degree days 82 86  
Since 1 July heating degree days 7190 7495  
Cooling Degree Days 0 0  
Month to date cooling degree days 0 0  
Year to date cooling degree days 0 0  
Moisture  
Dew Point 25 °F    
Average Humidity 49    
Maximum Humidity 69    
Minimum Humidity 23    
Precipitation  
Precipitation 0.00 in 0.03 in 0.14 in (1999)
Month to date precipitation 0.00 0.08  
Year to date precipitation 0.57 1.57  
Sea Level Pressure  
Sea Level Pressure 30.02 in    
Wind  
Wind Speed 14 mph (WNW)    
Max Wind Speed 33 mph    
Max Gust Speed 41 mph    
Visibility 10 miles    
Events      
T = Trace of Precipitation, MM = Missing Value Source: NWS Daily Summary

Daily Weather History Graph

Daily Weather History Graph

Search for Another Location

Airport or City:

Trip Planner

Search our weather history database for the weather conditions in past years. The results will help you decide how hot, cold, wet, or windy it might be!

Date:

Astronomy

Apr. 03, 2013 Rise Set
Actual Time 6:26 AM MDT 7:22 PM MDT
Civil Twilight 5:55 AM MDT 7:52 PM MDT
Nautical Twilight 5:19 AM MDT 8:29 PM MDT
Astronomical Twilight 4:41 AM MDT 9:07 PM MDT
Moon 2:29 AM MDT (4/3) 12:16 PM MDT (4/3)
Length of Visible Light 13h 56m
Length of Day
12h 56m
Last Quarter, 44% of the Moon is Illuminated
Apr 3
Last Quarter
Apr 10
New
Apr 18
First Quarter
Apr 25
Full
May 2
Last Quarter

Hourly Weather History & Observations

Time (MDT) Temp. Windchill Dew Point Humidity Pressure Visibility Wind Dir Wind Speed Gust Speed Precip Events Conditions
12:53 AM 32.0 °F 22.1 °F 21.9 °F 66% 30.10 in 10.0 mi SSE 13.8 mph - N/A   Clear
1:53 AM 32.0 °F 23.0 °F 21.0 °F 64% 30.08 in 10.0 mi SE 11.5 mph - N/A   Clear
2:53 AM 32.0 °F 22.5 °F 21.0 °F 64% 30.03 in 10.0 mi SE 12.7 mph - N/A   Clear
3:53 AM 32.0 °F 23.6 °F 21.0 °F 64% 30.01 in 10.0 mi SE 10.4 mph - N/A   Clear
4:53 AM 30.9 °F 21.7 °F 21.0 °F 67% 30.01 in 10.0 mi SSE 11.5 mph - N/A   Clear
5:53 AM 30.9 °F 22.8 °F 21.0 °F 67% 29.99 in 10.0 mi SSE 9.2 mph - N/A   Clear
6:53 AM 32.0 °F 23.6 °F 21.9 °F 66% 29.98 in 10.0 mi SSE 10.4 mph - N/A   Clear
7:53 AM 35.1 °F 28.6 °F 23.0 °F 61% 29.97 in 10.0 mi South 8.1 mph - N/A   Partly Cloudy
8:53 AM 42.1 °F 36.1 °F 25.0 °F 51% 29.94 in 10.0 mi South 10.4 mph - N/A   Clear
9:53 AM 51.1 °F - 26.1 °F 38% 29.94 in 10.0 mi SSW 16.1 mph - N/A   Partly Cloudy
10:53 AM 55.9 °F - 25.0 °F 30% 29.94 in 10.0 mi WSW 17.3 mph 21.9 mph N/A   Overcast
11:53 AM 61.0 °F - 27.0 °F 27% 29.93 in 10.0 mi WNW 12.7 mph - N/A   Overcast
12:53 PM 68.0 °F - 30.9 °F 25% 29.91 in 10.0 mi WNW 16.1 mph 21.9 mph N/A   Mostly Cloudy
1:53 PM 70.0 °F - 30.0 °F 23% 29.89 in 10.0 mi WNW 18.4 mph 31.1 mph N/A   Partly Cloudy
2:53 PM 66.9 °F - 30.0 °F 25% 29.90 in 10.0 mi WNW 24.2 mph 32.2 mph N/A   Scattered Clouds
3:53 PM 68.0 °F - 30.9 °F 25% 29.91 in 10.0 mi NW 20.7 mph 32.2 mph N/A   Scattered Clouds
4:53 PM 57.0 °F - 34.0 °F 42% 29.99 in 10.0 mi North 28.8 mph 35.7 mph N/A   Clear
5:53 PM 51.1 °F - 28.9 °F 43% 30.06 in 10.0 mi North 24.2 mph 36.8 mph N/A   Clear
6:53 PM 46.9 °F - 25.0 °F 42% 30.10 in 10.0 mi North 23.0 mph 29.9 mph N/A   Clear
7:53 PM 45.0 °F 39.7 °F 25.0 °F 46% 30.14 in 10.0 mi North 10.4 mph - N/A   Overcast
8:53 PM 41.0 °F 33.9 °F 25.0 °F 53% 30.15 in 10.0 mi North 12.7 mph - N/A   Scattered Clouds
9:53 PM 37.0 °F 31.0 °F 21.9 °F 54% 30.17 in 10.0 mi North 8.1 mph - N/A   Clear
10:53 PM 34.0 °F 26.6 °F 19.9 °F 56% 30.16 in 10.0 mi North 9.2 mph - N/A   Clear
11:53 PM 28.0 °F 20.0 °F 19.9 °F 72% 30.17 in 10.0 mi North 8.1 mph - N/A   Clear